Time,TemperatureF,DewpointF,PressureIn,WindDirection,WindDirectionDegrees,WindSpeedMPH,WindSpeedGustMPH,Humidity,HourlyPrecipIn,Conditions,Clouds,dailyrainin,SoftwareType,DateUTC
2013-07-04 00:03:00,59.5,45.0,25.57,South,176,4.0,5.0,59,0.00,,,0.00,weatherlink.com 1.10,2013-07-04 06:03:00,
2013-07-04 00:18:00,58.6,45.0,25.57,South,190,2.0,4.0,60,0.00,,,0.00,weatherlink.com 1.10,2013-07-04 06:18:00,
2013-07-04 00:33:00,59.0,44.0,25.57,SSW,209,3.0,4.0,59,0.00,,,0.00,weatherlink.com 1.10,2013-07-04 06:33:00,
2013-07-04 00:48:00,59.2,45.0,25.57,WSW,239,0.0,1.0,59,0.00,,,0.00,weatherlink.com 1.10,2013-07-04 06:48:00,
2013-07-04 01:03:00,58.5,44.0,25.56,SW,215,2.0,2.0,60,0.00,,,0.00,weatherlink.com 1.10,2013-07-04 07:03:00,
2013-07-04 01:18:00,58.4,44.0,25.56,SSW,203,1.0,2.0,60,0.00,,,0.00,weatherlink.com 1.10,2013-07-04 07:18:00,
2013-07-04 01:33:00,58.2,45.0,25.56,SW,219,3.0,4.0,62,0.00,,,0.00,weatherlink.com 1.10,2013-07-04 07:33:00,
2013-07-04 01:48:00,57.9,46.0,25.56,SSW,208,4.0,5.0,64,0.00,,,0.00,weatherlink.com 1.10,2013-07-04 07:48:00,
2013-07-04 02:03:00,58.2,46.0,25.56,SSW,211,5.0,6.0,64,0.00,,,0.00,weatherlink.com 1.10,2013-07-04 08:03:00,
2013-07-04 02:18:00,57.9,46.0,25.55,SSW,204,5.0,6.0,64,0.00,,,0.00,weatherlink.com 1.10,2013-07-04 08:18:00,
2013-07-04 02:33:00,56.5,46.0,25.55,SSW,195,4.0,4.0,68,0.00,,,0.00,weatherlink.com 1.10,2013-07-04 08:33:00,
2013-07-04 02:48:00,55.8,46.0,25.55,SSW,208,4.0,4.0,70,0.00,,,0.00,weatherlink.com 1.10,2013-07-04 08:48:00,
2013-07-04 03:03:00,56.6,46.0,25.55,SW,225,4.0,5.0,69,0.00,,,0.00,weatherlink.com 1.10,2013-07-04 09:03:00,
2013-07-04 03:18:00,57.1,47.0,25.55,SW,219,5.0,5.0,68,0.00,,,0.00,weatherlink.com 1.10,2013-07-04 09:18:00,
2013-07-04 03:33:00,56.0,47.0,25.55,SW,215,1.0,4.0,71,0.00,,,0.00,weatherlink.com 1.10,2013-07-04 09:33:00,
2013-07-04 03:48:00,55.7,47.0,25.55,SW,231,4.0,5.0,72,0.00,,,0.00,weatherlink.com 1.10,2013-07-04 09:48:00,
2013-07-04 04:03:00,55.1,47.0,25.54,SW,231,6.0,6.0,75,0.00,,,0.00,weatherlink.com 1.10,2013-07-04 10:03:00,
2013-07-04 04:18:00,55.8,47.0,25.54,SW,233,5.0,6.0,73,0.00,,,0.00,weatherlink.com 1.10,2013-07-04 10:18:00,
2013-07-04 04:33:00,55.0,47.0,25.54,WSW,256,1.0,4.0,74,0.00,,,0.00,weatherlink.com 1.10,2013-07-04 10:33:00,
2013-07-04 04:48:00,55.8,47.0,25.54,SSW,207,3.0,4.0,72,0.00,,,0.00,weatherlink.com 1.10,2013-07-04 10:48:00,
2013-07-04 05:03:00,55.8,47.0,25.54,SW,218,4.0,4.0,72,0.00,,,0.00,weatherlink.com 1.10,2013-07-04 11:03:00,
2013-07-04 05:18:00,54.9,47.0,25.55,SSW,210,3.0,5.0,74,0.00,,,0.00,weatherlink.com 1.10,2013-07-04 11:18:00,
2013-07-04 05:33:00,55.4,47.0,25.55,WSW,243,5.0,5.0,73,0.00,,,0.00,weatherlink.com 1.10,2013-07-04 11:33:00,
2013-07-04 05:48:00,55.2,47.0,25.55,West,261,4.0,5.0,74,0.00,,,0.00,weatherlink.com 1.10,2013-07-04 11:48:00,
2013-07-04 06:03:00,54.7,47.0,25.55,West,259,4.0,6.0,76,0.00,,,0.00,weatherlink.com 1.10,2013-07-04 12:03:00,
2013-07-04 06:18:00,56.8,48.0,25.55,ESE,117,3.0,4.0,72,0.00,,,0.00,weatherlink.com 1.10,2013-07-04 12:18:00,
2013-07-04 06:33:00,57.4,50.0,25.56,SW,225,0.0,3.0,75,0.00,,,0.00,weatherlink.com 1.10,2013-07-04 12:33:00,
2013-07-04 06:48:00,59.2,49.0,25.56,SW,222,4.0,5.0,68,0.00,,,0.00,weatherlink.com 1.10,2013-07-04 12:48:00,
2013-07-04 07:03:00,60.4,50.0,25.56,SW,226,3.0,6.0,69,0.00,,,0.00,weatherlink.com 1.10,2013-07-04 13:03:00,
2013-07-04 07:18:00,61.9,49.0,25.56,West,263,2.0,4.0,63,0.00,,,0.00,weatherlink.com 1.10,2013-07-04 13:18:00,
2013-07-04 07:34:00,64.6,48.0,25.57,WNW,296,2.0,5.0,55,0.00,,,0.00,weatherlink.com 1.10,2013-07-04 13:34:00,
2013-07-04 07:49:00,66.8,48.0,25.57,NW,323,5.0,7.0,52,0.00,,,0.00,weatherlink.com 1.10,2013-07-04 13:49:00,
2013-07-04 08:04:00,70.5,47.0,25.57,NNW,333,6.0,12.0,43,0.00,,,0.00,weatherlink.com 1.10,2013-07-04 14:04:00,
2013-07-04 08:19:00,72.5,46.0,25.57,NNW,338,8.0,12.0,39,0.00,,,0.00,weatherlink.com 1.10,2013-07-04 14:19:00,
2013-07-04 08:34:00,73.3,45.0,25.57,NNW,340,9.0,15.0,37,0.00,,,0.00,weatherlink.com 1.10,2013-07-04 14:34:00,
2013-07-04 08:49:00,74.5,45.0,25.57,North,360,10.0,14.0,35,0.00,,,0.00,weatherlink.com 1.10,2013-07-04 14:49:00,
2013-07-04 09:04:00,75.8,46.0,25.57,NNW,339,8.0,13.0,35,0.00,,,0.00,weatherlink.com 1.10,2013-07-04 15:04:00,
2013-07-04 09:19:00,76.9,46.0,25.57,NNW,340,5.0,11.0,33,0.00,,,0.00,weatherlink.com 1.10,2013-07-04 15:19:00,
2013-07-04 09:34:00,77.5,46.0,25.57,North,350,9.0,12.0,33,0.00,,,0.00,weatherlink.com 1.10,2013-07-04 15:34:00,
2013-07-04 09:49:00,78.3,45.0,25.57,NNW,335,6.0,10.0,31,0.00,,,0.00,weatherlink.com 1.10,2013-07-04 15:49:00,
2013-07-04 10:04:00,78.8,47.0,25.57,NE,34,7.0,15.0,32,0.00,,,0.00,weatherlink.com 1.10,2013-07-04 16:04:00,
2013-07-04 10:19:00,79.5,45.0,25.57,NNW,342,6.0,11.0,30,0.00,,,0.00,weatherlink.com 1.10,2013-07-04 16:19:00,
2013-07-04 10:34:00,80.7,47.0,25.57,NNE,32,4.0,9.0,30,0.00,,,0.00,weatherlink.com 1.10,2013-07-04 16:34:00,
2013-07-04 10:49:00,81.8,46.0,25.57,ENE,60,5.0,9.0,28,0.00,,,0.00,weatherlink.com 1.10,2013-07-04 16:49:00,
2013-07-04 11:04:00,82.7,45.0,25.57,ENE,60,7.0,9.0,27,0.00,,,0.00,weatherlink.com 1.10,2013-07-04 17:04:00,
2013-07-04 11:19:00,83.2,47.0,25.56,ENE,65,7.0,13.0,28,0.00,,,0.00,weatherlink.com 1.10,2013-07-04 17:19:00,
2013-07-04 11:34:00,84.1,46.0,25.56,NNE,13,3.0,9.0,26,0.00,,,0.00,weatherlink.com 1.10,2013-07-04 17:34:00,
2013-07-04 11:49:00,85.4,48.0,25.55,ENE,58,2.0,10.0,27,0.00,,,0.00,weatherlink.com 1.10,2013-07-04 17:49:00,
2013-07-04 12:04:00,86.2,47.0,25.55,North,8,8.0,10.0,26,0.00,,,0.00,weatherlink.com 1.10,2013-07-04 18:04:00,
2013-07-04 12:20:00,86.1,45.0,25.55,North,349,0.0,5.0,24,0.00,,,0.00,weatherlink.com 1.10,2013-07-04 18:20:00,
2013-07-04 12:35:00,86.1,46.0,25.54,NE,53,5.0,14.0,25,0.00,,,0.00,weatherlink.com 1.10,2013-07-04 18:35:00,
2013-07-04 12:50:00,86.8,44.0,25.54,NE,36,2.0,14.0,22,0.00,,,0.00,weatherlink.com 1.10,2013-07-04 18:50:00,
2013-07-04 13:05:00,87.4,43.0,25.54,NNW,334,2.0,12.0,21,0.00,,,0.00,weatherlink.com 1.10,2013-07-04 19:05:00,
2013-07-04 13:20:00,87.6,44.0,25.54,ENE,58,8.0,14.0,22,0.00,,,0.00,weatherlink.com 1.10,2013-07-04 19:20:00,
2013-07-04 13:35:00,87.1,45.0,25.55,NNE,29,8.0,9.0,23,0.00,,,0.00,weatherlink.com 1.10,2013-07-04 19:35:00,
2013-07-04 13:50:00,87.4,45.0,25.55,NE,34,13.0,16.0,23,0.00,,,0.00,weatherlink.com 1.10,2013-07-04 19:50:00,
2013-07-04 14:05:00,88.2,42.0,25.55,NE,49,20.0,23.0,20,0.00,,,0.00,weatherlink.com 1.10,2013-07-04 20:05:00,
2013-07-04 14:20:00,87.4,43.0,25.55,NE,44,14.0,25.0,21,0.00,,,0.00,weatherlink.com 1.10,2013-07-04 20:20:00,
2013-07-04 14:35:00,87.8,44.0,25.55,NE,42,15.0,22.0,22,0.00,,,0.00,weatherlink.com 1.10,2013-07-04 20:35:00,
2013-07-04 14:50:00,88.0,45.0,25.55,NNE,13,12.0,21.0,22,0.00,,,0.00,weatherlink.com 1.10,2013-07-04 20:50:00,
2013-07-04 15:05:00,85.6,53.0,25.54,NNE,31,29.0,37.0,33,0.00,,,0.00,weatherlink.com 1.10,2013-07-04 21:05:00,
2013-07-04 15:20:00,84.5,54.0,25.54,NE,54,24.0,35.0,35,0.00,,,0.00,weatherlink.com 1.10,2013-07-04 21:20:00,
2013-07-04 15:35:00,84.1,53.0,25.54,NE,43,28.0,34.0,34,0.00,,,0.00,weatherlink.com 1.10,2013-07-04 21:35:00,
2013-07-04 15:50:00,83.9,51.0,25.54,ENE,60,26.0,30.0,32,0.00,,,0.00,weatherlink.com 1.10,2013-07-04 21:50:00,
2013-07-04 16:05:00,84.1,53.0,25.54,ENE,58,21.0,24.0,34,0.00,,,0.00,weatherlink.com 1.10,2013-07-04 22:05:00,
2013-07-04 16:20:00,83.5,52.0,25.54,ENE,60,18.0,21.0,34,0.00,,,0.00,weatherlink.com 1.10,2013-07-04 22:20:00,
2013-07-04 16:35:00,84.7,47.0,25.54,ENE,66,15.0,17.0,27,0.00,,,0.00,weatherlink.com 1.10,2013-07-04 22:35:00,
2013-07-04 16:50:00,84.1,54.0,25.55,ENE,60,18.0,23.0,35,0.00,,,0.00,weatherlink.com 1.10,2013-07-04 22:50:00,
2013-07-04 17:05:00,83.1,53.0,25.55,ENE,62,15.0,20.0,36,0.00,,,0.00,weatherlink.com 1.10,2013-07-04 23:05:00,
2013-07-04 17:20:00,83.9,50.0,25.54,ENE,63,19.0,22.0,31,0.00,,,0.00,weatherlink.com 1.10,2013-07-04 23:20:00,
2013-07-04 17:35:00,84.3,51.0,25.54,ENE,65,17.0,21.0,31,0.00,,,0.00,weatherlink.com 1.10,2013-07-04 23:35:00,
2013-07-04 17:50:00,84.8,50.0,25.54,ENE,72,19.0,20.0,30,0.00,,,0.00,weatherlink.com 1.10,2013-07-04 23:50:00,
2013-07-04 18:05:00,84.3,49.0,25.54,ENE,63,11.0,20.0,29,0.00,,,0.00,weatherlink.com 1.10,2013-07-05 00:05:00,
2013-07-04 18:20:00,84.3,49.0,25.54,ENE,58,11.0,16.0,29,0.00,,,0.00,weatherlink.com 1.10,2013-07-05 00:20:00,
2013-07-04 18:35:00,83.9,48.0,25.54,ENE,69,12.0,16.0,29,0.00,,,0.00,weatherlink.com 1.10,2013-07-05 00:35:00,
2013-07-04 18:50:00,83.8,48.0,25.54,East,86,8.0,17.0,29,0.00,,,0.00,weatherlink.com 1.10,2013-07-05 00:50:00,
2013-07-04 19:05:00,82.7,49.0,25.54,East,91,8.0,15.0,31,0.00,,,0.00,weatherlink.com 1.10,2013-07-05 01:05:00,
2013-07-04 19:20:00,80.3,49.0,25.55,ENE,72,8.0,16.0,34,0.00,,,0.00,weatherlink.com 1.10,2013-07-05 01:20:00,
2013-07-04 19:35:00,77.9,51.0,25.55,ENE,73,7.0,11.0,39,0.00,,,0.00,weatherlink.com 1.10,2013-07-05 01:35:00,
2013-07-04 19:50:00,75.9,50.0,25.56,ENE,77,8.0,9.0,41,0.00,,,0.00,weatherlink.com 1.10,2013-07-05 01:50:00,
2013-07-04 20:05:00,74.5,50.0,25.56,East,100,5.0,7.0,42,0.00,,,0.00,weatherlink.com 1.10,2013-07-05 02:05:00,
2013-07-04 20:20:00,72.8,50.0,25.56,ENE,69,5.0,5.0,45,0.00,,,0.00,weatherlink.com 1.10,2013-07-05 02:20:00,
2013-07-04 20:35:00,71.0,51.0,25.56,ENE,69,7.0,7.0,49,0.00,,,0.00,weatherlink.com 1.10,2013-07-05 02:35:00,
2013-07-04 20:50:00,70.1,52.0,25.56,ENE,77,7.0,7.0,52,0.00,,,0.00,weatherlink.com 1.10,2013-07-05 02:50:00,
2013-07-04 21:05:00,68.8,52.0,25.56,ENE,71,6.0,7.0,56,0.00,,,0.00,weatherlink.com 1.10,2013-07-05 03:05:00,
2013-07-04 21:20:00,67.9,53.0,25.56,ENE,70,4.0,5.0,59,0.00,,,0.00,weatherlink.com 1.10,2013-07-05 03:20:00,
2013-07-04 21:35:00,67.8,53.0,25.56,ENE,77,3.0,6.0,59,0.00,,,0.00,weatherlink.com 1.10,2013-07-05 03:35:00,
2013-07-04 21:50:00,67.6,53.0,25.56,ESE,112,3.0,4.0,59,0.00,,,0.00,weatherlink.com 1.10,2013-07-05 03:50:00,
2013-07-04 22:05:00,66.7,53.0,25.57,ENE,76,1.0,3.0,62,0.00,,,0.00,weatherlink.com 1.10,2013-07-05 04:05:00,
2013-07-04 22:20:00,67.4,53.0,25.57,East,86,1.0,2.0,60,0.00,,,0.00,weatherlink.com 1.10,2013-07-05 04:20:00,
2013-07-04 22:35:00,68.0,52.0,25.57,East,101,0.0,2.0,58,0.00,,,0.00,weatherlink.com 1.10,2013-07-05 04:35:00,
2013-07-04 22:50:00,68.0,53.0,25.57,ESE,110,3.0,3.0,59,0.00,,,0.00,weatherlink.com 1.10,2013-07-05 04:50:00,
2013-07-04 23:05:00,67.7,53.0,25.56,ESE,105,5.0,6.0,59,0.00,,,0.00,weatherlink.com 1.10,2013-07-05 05:05:00,
2013-07-04 23:20:00,67.1,53.0,25.56,East,84,2.0,6.0,61,0.00,,,0.00,weatherlink.com 1.10,2013-07-05 05:20:00,
2013-07-04 23:35:00,66.5,53.0,25.56,ESE,107,3.0,4.0,62,0.00,,,0.00,weatherlink.com 1.10,2013-07-05 05:35:00,
2013-07-04 23:50:00,65.5,53.0,25.56,SSE,152,1.0,2.0,64,0.00,,,0.00,weatherlink.com 1.10,2013-07-05 05:50:00,